Radiation Dose at Monitoring Post of Fukushima Daini Nuclear Power Station
Date,Time,MP-1(microSv/h),MP-2(microSv/h),MP-3(microSv/h),MP-4(microSv/h),MP-5(microSv/h),MP-6(microSv/h),MP-7(microSv/h),Wind Direction,Wind Velocity(m/s),Rain
2018/05/02,00:00,0.321,0.203,0.333,0.319,0.303,0.163,0.100,north,7.0,No
2018/05/02,00:10,0.320,0.203,0.331,0.317,0.305,0.164,0.099,north,4.3,No
2018/05/02,00:20,0.322,0.203,0.331,0.318,0.302,0.164,0.099,north,5.7,No
2018/05/02,00:30,0.320,0.203,0.334,0.316,0.304,0.165,0.099,north,6.6,No
2018/05/02,00:40,0.321,0.203,0.331,0.317,0.303,0.163,0.100,north,6.7,No
2018/05/02,00:50,0.320,0.203,0.332,0.315,0.304,0.164,0.100,north,6.0,No
2018/05/02,01:00,0.321,0.202,0.332,0.317,0.304,0.164,0.100,north,6.7,No
2018/05/02,01:10,0.321,0.202,0.332,0.316,0.302,0.164,0.099,north,5.8,No
2018/05/02,01:20,0.320,0.202,0.331,0.317,0.305,0.163,0.098,north,6.1,No
2018/05/02,01:30,0.320,0.203,0.334,0.316,0.304,0.163,0.099,north,6.6,No
2018/05/02,01:40,0.319,0.203,0.331,0.318,0.304,0.162,0.099,north,5.0,No
2018/05/02,01:50,0.322,0.202,0.332,0.315,0.302,0.164,0.099,north,5.0,No
2018/05/02,02:00,0.319,0.202,0.332,0.316,0.304,0.163,0.100,north,4.5,No
2018/05/02,02:10,0.322,0.203,0.332,0.316,0.302,0.163,0.099,north,3.0,No
2018/05/02,02:20,0.320,0.203,0.332,0.315,0.304,0.163,0.099,north,5.2,No
2018/05/02,02:30,0.321,0.203,0.330,0.317,0.303,0.164,0.100,north,6.2,No
2018/05/02,02:40,0.319,0.201,0.333,0.314,0.304,0.164,0.099,north,3.1,No
2018/05/02,02:50,0.321,0.203,0.330,0.318,0.303,0.164,0.100,north,2.8,No
2018/05/02,03:00,0.319,0.202,0.331,0.314,0.304,0.163,0.099,north,2.6,No
2018/05/02,03:10,0.322,0.203,0.332,0.318,0.303,0.164,0.099,north,2.5,No
2018/05/02,03:20,0.320,0.202,0.331,0.315,0.304,0.163,0.099,north-northwest,1.8,No
2018/05/02,03:30,0.322,0.202,0.332,0.317,0.304,0.163,0.100,north,2.6,No
2018/05/02,03:40,0.320,0.202,0.333,0.315,0.303,0.163,0.100,north-northwest,2.2,No
2018/05/02,03:50,0.320,0.201,0.331,0.317,0.304,0.163,0.099,north,1.8,No
2018/05/02,04:00,0.321,0.203,0.331,0.317,0.303,0.164,0.099,north-northwest,1.3,No
2018/05/02,04:10,0.321,0.201,0.332,0.317,0.304,0.163,0.099,north-northwest,0.9,No
2018/05/02,04:20,0.321,0.203,0.331,0.316,0.305,0.163,0.099,north-northwest,0.9,No
2018/05/02,04:30,0.320,0.202,0.332,0.318,0.304,0.163,0.099,north-northwest,1.1,No
2018/05/02,04:40,0.323,0.203,0.330,0.315,0.302,0.164,0.100,north-northwest,1.6,No
2018/05/02,04:50,0.320,0.202,0.332,0.317,0.305,0.163,0.099,north-northwest,1.4,No
2018/05/02,05:00,0.322,0.203,0.331,0.315,0.304,0.163,0.099,north-northwest,2.5,No
2018/05/02,05:10,0.319,0.203,0.334,0.317,0.304,0.163,0.099,north-northwest,3.3,No
2018/05/02,05:20,0.322,0.202,0.330,0.315,0.304,0.164,0.099,north-northwest,3.4,No
2018/05/02,05:30,0.320,0.203,0.332,0.318,0.305,0.164,0.099,north-northwest,3.9,No
2018/05/02,05:40,0.322,0.203,0.330,0.317,0.303,0.164,0.099,north-northwest,4.1,No
2018/05/02,05:50,0.321,0.203,0.333,0.317,0.304,0.163,0.100,north-northwest,4.0,No
2018/05/02,06:00,0.323,0.202,0.332,0.319,0.302,0.165,0.100,northwest,4.4,No
2018/05/02,06:10,0.320,0.203,0.333,0.315,0.304,0.163,0.099,northwest,3.5,No
2018/05/02,06:20,0.322,0.203,0.330,0.316,0.303,0.164,0.099,west-northwest,2.4,No
2018/05/02,06:30,0.320,0.203,0.333,0.317,0.304,0.164,0.099,northwest,2.1,No
2018/05/02,06:40,0.320,0.203,0.330,0.317,0.304,0.163,0.100,north-northwest,1.5,No
2018/05/02,06:50,0.321,0.202,0.333,0.317,0.304,0.164,0.099,north-northwest,1.8,No
2018/05/02,07:00,0.322,0.203,0.329,0.316,0.306,0.163,0.099,north,1.9,No
2018/05/02,07:10,0.320,0.203,0.333,0.318,0.302,0.164,0.099,north,2.9,No
2018/05/02,07:20,0.320,0.203,0.331,0.315,0.304,0.162,0.100,north,2.9,No
2018/05/02,07:30,0.321,0.203,0.333,0.317,0.302,0.164,0.099,north,2.8,No
2018/05/02,07:40,0.321,0.204,0.332,0.314,0.303,0.163,0.100,north-northeast,2.1,No
2018/05/02,07:50,0.318,0.202,0.332,0.317,0.304,0.164,0.100,north-northeast,1.8,No
2018/05/02,08:00,0.321,0.203,0.332,0.316,0.302,0.163,0.099,north-northeast,2.0,No
2018/05/02,08:10,0.319,0.202,0.331,0.314,0.306,0.164,0.100,northeast,2.5,No
2018/05/02,08:20,0.322,0.202,0.332,0.317,0.301,0.165,0.099,north-northeast,2.3,No
2018/05/02,08:30,0.319,0.203,0.330,0.315,0.304,0.163,0.099,north-northeast,1.8,No
2018/05/02,08:40,0.322,0.200,0.332,0.318,0.304,0.164,0.099,northeast,2.2,No
2018/05/02,08:50,0.318,0.203,0.329,0.315,0.301,0.164,0.099,northeast,2.3,No
2018/05/02,09:00,0.321,0.201,0.333,0.314,0.306,0.163,0.100,northeast,3.2,No
2018/05/02,09:10,0.320,0.202,0.330,0.317,0.302,0.164,0.098,northeast,3.5,No
2018/05/02,09:20,0.320,0.202,0.331,0.313,0.304,0.163,0.099,northeast,2.8,No
2018/05/02,09:30,0.321,0.201,0.331,0.315,0.304,0.162,0.099,northeast,2.7,No
2018/05/02,09:40,0.318,0.202,0.330,0.317,0.301,0.164,0.099,northeast,1.6,No
2018/05/02,09:50,0.320,0.200,0.330,0.314,0.304,0.163,0.099,northeast,1.4,No
2018/05/02,10:00,0.320,0.203,0.328,0.318,0.304,0.163,0.099,east-northeast,1.5,No
2018/05/02,10:10,0.318,0.202,0.331,0.316,0.301,0.164,0.098,east-northeast,1.6,No
2018/05/02,10:20,0.322,0.204,0.332,0.314,0.305,0.163,0.099,east-northeast,2.1,No
2018/05/02,10:30,0.320,0.203,0.331,0.317,0.305,0.162,0.099,northeast,2.3,No
2018/05/02,10:40,0.320,0.201,0.332,0.316,0.300,0.164,0.099,east-northeast,2.3,No
2018/05/02,10:50,0.319,0.202,0.330,0.314,0.303,0.163,0.099,northeast,2.4,No
2018/05/02,11:00,0.317,0.202,0.331,0.316,0.303,0.163,0.099,east,2.3,No
2018/05/02,11:10,0.319,0.200,0.333,0.318,0.301,0.164,0.099,east,2.5,No
2018/05/02,11:20,0.321,0.202,0.330,0.315,0.300,0.163,0.099,east,2.2,No
2018/05/02,11:30,0.317,0.202,0.328,0.313,0.302,0.163,0.099,east-southeast,2.4,No
2018/05/02,11:40,0.320,0.201,0.333,0.317,0.304,0.165,0.098,east-southeast,2.2,No
2018/05/02,11:50,0.321,0.203,0.331,0.317,0.302,0.163,0.099,east-southeast,2.8,No
2018/05/02,12:00,0.318,0.201,0.329,0.315,0.301,0.163,0.099,east-southeast,2.5,No
2018/05/02,12:10,0.323,0.202,0.332,0.316,0.305,0.163,0.097,southeast,2.4,No
2018/05/02,12:20,0.320,0.202,0.331,0.317,0.304,0.163,0.099,southeast,2.9,No
2018/05/02,12:30,0.318,0.202,0.332,0.316,0.302,0.163,0.098,southeast,3.4,No
2018/05/02,12:40,0.322,0.202,0.333,0.319,0.306,0.164,0.099,south-southeast,2.5,No
2018/05/02,12:50,0.321,0.202,0.331,0.317,0.304,0.163,0.099,south-southeast,2.5,No
2018/05/02,13:00,0.319,0.202,0.333,0.315,0.300,0.164,0.099,south,2.9,No
2018/05/02,13:10,0.320,0.203,0.332,0.318,0.303,0.165,0.098,south,3.5,No
2018/05/02,13:20,0.318,0.202,0.329,0.317,0.305,0.164,0.101,south,4.1,No
2018/05/02,13:30,0.321,0.201,0.334,0.315,0.303,0.163,0.099,south,5.3,No
2018/05/02,13:40,0.321,0.203,0.331,0.319,0.301,0.164,0.098,south,8.1,No
2018/05/02,13:50,0.318,0.202,0.330,0.317,0.304,0.164,0.099,south,8.9,No
2018/05/02,14:00,0.319,0.201,0.334,0.315,0.304,0.162,0.099,south,9.0,No
2018/05/02,14:10,0.322,0.203,0.332,0.318,0.302,0.163,0.099,south,9.6,No
2018/05/02,14:20,0.320,0.202,0.330,0.318,0.300,0.163,0.098,south,9.0,No
2018/05/02,14:30,0.318,0.202,0.328,0.314,0.303,0.163,0.100,south,9.3,No
2018/05/02,14:40,0.319,0.204,0.333,0.318,0.304,0.164,0.099,south,9.2,No
2018/05/02,14:50,0.322,0.203,0.332,0.316,0.301,0.163,0.099,south,11.5,No
2018/05/02,15:00,0.319,0.203,0.332,0.316,0.305,0.164,0.100,south,10.6,No
2018/05/02,15:10,0.321,0.202,0.334,0.318,0.304,0.164,0.099,south,10.3,No
2018/05/02,15:20,0.321,0.202,0.330,0.316,0.302,0.162,0.100,south,10.9,No
2018/05/02,15:30,0.320,0.203,0.334,0.318,0.306,0.164,0.099,south,10.0,No
2018/05/02,15:40,0.321,0.202,0.331,0.318,0.301,0.163,0.099,south,10.3,No
2018/05/02,15:50,0.320,0.204,0.333,0.316,0.307,0.164,0.099,south,8.5,No
2018/05/02,16:00,0.321,0.202,0.331,0.318,0.304,0.164,0.099,south,5.7,Yes
2018/05/02,16:10,0.321,0.204,0.332,0.317,0.304,0.163,0.099,south,7.8,No
2018/05/02,16:20,0.321,0.203,0.333,0.320,0.305,0.164,0.099,south,7.0,Yes
2018/05/02,16:30,0.322,0.204,0.332,0.315,0.302,0.163,0.099,south,6.4,Yes
2018/05/02,16:40,0.319,0.203,0.335,0.319,0.305,0.164,0.099,south,8.4,No
2018/05/02,16:50,0.322,0.203,0.331,0.316,0.303,0.163,0.100,south,8.5,No
2018/05/02,17:00,0.320,0.203,0.334,0.318,0.306,0.164,0.099,south,7.3,Yes
2018/05/02,17:10,0.321,0.204,0.330,0.316,0.304,0.164,0.100,south,7.0,No
2018/05/02,17:20,0.320,0.202,0.334,0.319,0.304,0.164,0.099,south,7.1,No
2018/05/02,17:30,0.321,0.202,0.331,0.318,0.303,0.164,0.101,south,6.0,No
2018/05/02,17:40,0.321,0.202,0.334,0.316,0.304,0.164,0.099,south,6.5,No
2018/05/02,17:50,0.320,0.203,0.331,0.318,0.305,0.164,0.100,south,6.9,No
2018/05/02,18:00,0.320,0.203,0.333,0.316,0.303,0.164,0.099,south-southwest,8.2,No
2018/05/02,18:10,0.321,0.203,0.333,0.319,0.305,0.164,0.099,south,8.4,Yes
2018/05/02,18:20,0.323,0.203,0.332,0.316,0.303,0.163,0.100,south,9.8,Yes
2018/05/02,18:30,0.320,0.204,0.333,0.320,0.305,0.164,0.100,south,9.6,Yes
2018/05/02,18:40,0.323,0.202,0.334,0.316,0.304,0.163,0.100,south,9.0,Yes
2018/05/02,18:50,0.321,0.205,0.335,0.320,0.307,0.165,0.100,south,9.2,Yes
2018/05/02,19:00,0.323,0.206,0.334,0.319,0.305,0.166,0.102,south,9.2,Yes
2018/05/02,19:10,0.321,0.206,0.337,0.320,0.308,0.166,0.102,south,8.8,Yes
2018/05/02,19:20,0.326,0.206,0.334,0.320,0.307,0.168,0.102,south,8.3,Yes
2018/05/02,19:30,0.323,0.208,0.337,0.321,0.308,0.166,0.102,south,8.1,Yes
2018/05/02,19:40,0.326,0.206,0.335,0.320,0.307,0.167,0.101,south,9.3,Yes
2018/05/02,19:50,0.323,0.207,0.337,0.321,0.305,0.167,0.103,south,8.4,Yes
2018/05/02,20:00,0.325,0.206,0.334,0.320,0.306,0.167,0.102,south,8.5,Yes
2018/05/02,20:10,0.324,0.206,0.336,0.321,0.305,0.166,0.102,south,8.8,Yes
2018/05/02,20:20,0.326,0.205,0.334,0.321,0.308,0.167,0.103,south,8.4,Yes
2018/05/02,20:30,0.323,0.207,0.336,0.319,0.304,0.167,0.102,south,8.8,Yes
2018/05/02,20:40,0.324,0.206,0.334,0.320,0.308,0.168,0.103,south,7.7,Yes
2018/05/02,20:50,0.324,0.208,0.336,0.322,0.305,0.168,0.103,south,7.8,Yes
2018/05/02,21:00,0.324,0.208,0.335,0.321,0.308,0.169,0.104,south,8.7,Yes
2018/05/02,21:10,0.325,0.208,0.339,0.321,0.306,0.169,0.105,south,8.2,Yes
2018/05/02,21:20,0.323,0.207,0.334,0.321,0.309,0.168,0.106,south,7.9,Yes
2018/05/02,21:30,0.325,0.209,0.339,0.320,0.306,0.169,0.104,south,8.8,Yes
2018/05/02,21:40,0.324,0.208,0.334,0.321,0.309,0.170,0.106,south-southwest,8.9,Yes
2018/05/02,21:50,0.325,0.208,0.337,0.321,0.306,0.169,0.105,south-southwest,11.1,Yes
2018/05/02,22:00,0.323,0.206,0.335,0.319,0.307,0.169,0.105,south-southwest,10.7,Yes
2018/05/02,22:10,0.325,0.207,0.334,0.320,0.304,0.169,0.105,south-southwest,9.3,Yes
2018/05/02,22:20,0.323,0.206,0.333,0.319,0.307,0.168,0.105,south-southwest,9.2,Yes
2018/05/02,22:30,0.324,0.205,0.333,0.321,0.304,0.168,0.104,south-southwest,9.8,Yes
2018/05/02,22:40,0.320,0.206,0.330,0.317,0.306,0.167,0.104,south,9.2,Yes
2018/05/02,22:50,0.321,0.204,0.332,0.317,0.303,0.166,0.105,south,10.0,Yes
2018/05/02,23:00,0.320,0.206,0.330,0.315,0.304,0.167,0.103,south,10.3,Yes
2018/05/02,23:10,0.320,0.205,0.331,0.318,0.302,0.168,0.104,south,10.4,Yes
2018/05/02,23:20,0.320,0.206,0.330,0.316,0.305,0.168,0.104,south,10.7,Yes
2018/05/02,23:30,0.319,0.204,0.329,0.318,0.305,0.168,0.105,south,10.1,Yes
2018/05/02,23:40,0.321,0.206,0.333,0.316,0.304,0.168,0.105,south-southwest,9.8,Yes
2018/05/02,23:50,0.319,0.204,0.329,0.315,0.303,0.168,0.105,south-southwest,7.8,Yes
